Location: Az?znagar
(16.8373°N, 80.5091°E)
Time: 02:09:34
(UTC+00:00)

Nadezhda 4 Rocket - Pass Details

Date: 09 July 2022
Orbit: 949 x 992 km, 82.9° (Epoch: 09 August)

Event Time Altitude Azimuth Distance (km) Brightness Sun altitude
Rises 23:35:24 0° 197° (SSW) 3,655 6.6 -8.6°
Reaches altitude 10° 23:38:00 10° 203° (SSW) 2,702 5.9 -8.0°
Maximum altitude 23:43:54 47° 275° (W) 1,250 4.3 -6.7°
Drops below altitude 10° 23:49:46 10° 348° (NNW) 2,681 6.5 -5.5°
Sets 23:52:21 0° 355° (N) 3,623 7.3 -4.9°
